Weather reports worldwide

Advertisment
Waldmünchen, Germany (10782): temperature & dewpoint: 16.01.2019 04:00:00 - 22.01.2019 04:00:00 (CET)Waldmünchen, Germany (10782): temperature 5cm & temperature -5cm: 16.01.2019 04:00:00 - 22.01.2019 04:00:00 (CET)Waldmünchen, Germany (10782): temperature -20cm & temperature -100cm: 16.01.2019 04:00:00 - 22.01.2019 04:00:00 (CET)Waldmünchen, Germany (10782): wind speed & gusts: 16.01.2019 04:00:00 - 22.01.2019 04:00:00 (CET)Waldmünchen, Germany (10782): wind direction: 16.01.2019 04:00:00 - 22.01.2019 04:00:00 (CET)Waldmünchen, Germany (10782): reduced air pressure: 16.01.2019 04:00:00 - 22.01.2019 04:00:00 (CET)Waldmünchen, Germany (10782): visibility: 16.01.2019 04:00:00 - 22.01.2019 04:00:00 (CET)Waldmünchen, Germany (10782): sunshine duration: 16.01.2019 04:00:00 - 22.01.2019 04:00:00 (CET)Waldmünchen, Germany (10782): precipitation: 16.01.2019 04:00:00 - 22.01.2019 04:00:00 (CET)
Date & Time tt [°C] td [°C] tt 5cm [°C] tt -5cm [°C] tt -20cm [°C] tt -100cm [°C] ff [km/h] ff [kn] fx [km/h] fx [kn] dd ppp [hPa] vv [km] sd [min] rr [mm]
22.01.2019 04:00:00 -9,5 -10,8 -9,3 -4,2 -0,1 4,3 2 1 6 3 WNW 1020,1 8 0 0,0
22.01.2019 03:00:00 -10,3 -11,3 -9,9 -4,6 0,0 4,3 2 1 5 3 S 1020,9 8 0 0,0
22.01.2019 02:00:00 -10,8 -12,0 -11,8 -4,8 0,0 4,3 5 3 6 3 E 1021,4 7 0 0,0
22.01.2019 01:00:00 -10,1 -11,0 -12,0 -4,9 0,0 4,3 5 3 7 4 NNE 1021,8 8 0 0,0
22.01.2019 00:00:00 -10,3 -11,3 -12,0 -4,6 0,0 4,3 2 1 5 3 W 1022,6 6 0 0,0
21.01.2019 23:00:00 -9,7 -10,7 -11,6 -4,3 0,0 4,3 4 2 6 3 E 1022,4 6 0 0,0
21.01.2019 22:00:00 -8,9 -9,9 -10,3 -3,9 0,1 4,3 1 1 6 4 WSW 1022,3 7 0 0,0
21.01.2019 21:00:00 -7,9 -8,8 -9,8 -3,4 0,1 4,3 4 2 10 5 ENE 1022,2 9 0 0,0
21.01.2019 20:00:00 -7,0 -8,6 -9,6 -2,8 0,1 4,3 5 3 9 5 NE 1022,2 10 0 0,0
21.01.2019 19:00:00 -5,2 -7,7 -8,3 -2,2 0,1 4,3 1 1 9 5 WNW 1021,7 9 0 0,0
21.01.2019 18:00:00 -4,2 -7,6 -7,3 -1,5 0,1 4,3 2 1 4 2 NNE 1021,6 14 0 0,0
21.01.2019 17:00:00 -2,8 -7,4 -5,3 -1,0 0,1 4,3 3 2 6 3 W 1021,1 17 22 0,0
21.01.2019 16:00:00 -1,3 -7,4 -2,1 -0,6 0,1 4,3 4 2 8 5 W 1020,8 16 57 0,0
21.01.2019 15:00:00 -0,2 -8,2 -0,5 -0,6 0,1 4,3 5 3 8 4 W 1020,8 18 60 0,0
21.01.2019 14:00:00 -1,0 -8,2 -0,8 -0,7 0,1 4,3 6 3 10 5 W 1021,6 14 60 0,0
21.01.2019 13:00:00 -0,9 -9,9 2,7 -1,0 0,1 4,3 2 1 5 3 NE 1022,2 16 60 0,0
21.01.2019 12:00:00 -2,1 -6,5 -1,8 -1,4 0,1 4,3 4 2 5 3 SW 1023,0 6 58 0,0
21.01.2019 11:00:00 -5,3 -8,6 -4,6 -2,3 0,1 4,3 3 2 5 3 W 1024,2 6 43 0,0
21.01.2019 10:00:00 -7,8 -10,0 -7,5 -3,4 0,1 4,3 3 2 5 3 W 1024,8 6 21 0,0
21.01.2019 09:00:00 -9,7 -11,0 -9,6 -4,2 0,1 4,3 3 2 4 2 ENE 1024,9 5 1 0,0
21.01.2019 08:00:00 -9,1 -9,9 -10,9 -4,2 0,2 4,3 3 2 6 3 NE 1024,5 4,7 0 0,0
21.01.2019 07:00:00 -8,8 -9,5 -10,8 -4,0 0,2 4,3 3 2 5 3 NNE 1023,9 4,2 0 0,0
21.01.2019 06:00:00 -8,8 -9,7 -10,5 -3,7 0,2 4,3 2 1 5 3 SW 1023,9 4,9 0 0,0
21.01.2019 05:00:00 -8,0 -8,8 -10,0 -3,3 0,2 4,3 2 1 5 3 WNW 1023,7 7 0 0,0
21.01.2019 04:00:00 -6,7 -8,3 -9,0 -2,9 0,2 4,3 3 1 5 3 SSW 1023,2 9 0 0,0
21.01.2019 03:00:00 -5,7 -7,1 -6,3 -2,2 0,2 4,3 3 2 6 4 WSW 1023,1 6 0 0,0
21.01.2019 02:00:00 -5,5 -7,1 -5,3 -2,2 0,2 4,3 2 1 14 8 WSW 1022,9 6 0 0,0
21.01.2019 01:00:00 -6,2 -7,5 -6,0 -2,4 0,3 4,3 3 2 11 6 ESE 1023,0 6 0 0,0
21.01.2019 00:00:00 -4,3 -7,0 -5,3 -2,7 0,3 4,3 7 4 14 7 NE 1022,4 9 0 0,0
20.01.2019 23:00:00 -5,4 -7,5 -6,8 -2,8 0,3 4,3 6 4 11 6 NE 1022,4 8 0 0,0
20.01.2019 22:00:00 -4,8 -7,3 -7,3 -2,8 0,3 4,3 4 2 12 6 E 1021,7 10 0 0,0
20.01.2019 21:00:00 -4,4 -7,4 -7,0 -2,7 0,3 4,3 7 4 14 8 ENE 1021,0 11 0 0,0
20.01.2019 20:00:00 -3,7 -7,3 -5,5 -2,5 0,3 4,3 9 5 20 11 ENE 1020,5 13 0 0,0
20.01.2019 19:00:00 -3,4 -7,0 -4,8 -2,1 0,3 4,3 12 7 20 11 NE 1019,8 13 0 0,0
20.01.2019 18:00:00 -3,5 -7,2 -4,8 -1,8 0,4 4,3 16 9 25 14 ENE 1019,3 13 0 0,0
20.01.2019 17:00:00 -3,4 -7,4 -4,6 -1,1 0,4 4,3 16 8 30 16 ENE 1018,8 14 0 0,0
20.01.2019 16:00:00 -3,1 -7,0 -3,3 -0,6 0,4 4,4 11 6 28 15 ENE 1018,3 12 12 0,0
20.01.2019 15:00:00 -3,2 -7,2 -3,0 -0,5 0,4 4,4 16 9 23 13 ENE 1018,1 13 0 0,0
20.01.2019 14:00:00 -3,1 -7,1 -2,0 -0,5 0,4 4,4 16 9 23 12 NE 1018,0 12 11 0,0
20.01.2019 13:00:00 -3,0 -7,2 -1,6 -0,7 0,4 4,4 14 7 21 12 ENE 1017,9 7 48 0,0
20.01.2019 12:00:00 -3,3 -7,8 -1,8 -1,0 0,4 4,4 7 4 19 10 S 1018,0 11 41 0,0
20.01.2019 11:00:00 -4,5 -8,1 -3,0 -1,5 0,4 4,4 8 5 15 8 E 1018,3 8 54 0,0
20.01.2019 10:00:00 -6,1 -9,3 -5,5 -2,5 0,4 4,4 5 3 7 4 E 1018,5 6 23 0,0
20.01.2019 09:00:00 -9,2 -11,1 -8,3 -3,4 0,5 4,4 4 2 6 3 S 1018,7 7 0 0,0
20.01.2019 08:00:00 -9,3 -10,5 -11,3 -3,6 0,5 4,4 4 2 6 3 SSW 1018,2 9 0 0,0
20.01.2019 07:00:00 -9,4 -10,8 -11,6 -3,4 0,5 4,4 3 2 7 4 S 1018,0 11 0 0,0
20.01.2019 06:00:00 -9,2 -10,9 -11,0 -3,2 0,5 4,4 4 2 14 8 ESE 1017,7 9 0 0,0
20.01.2019 05:00:00 -7,5 -9,1 -8,8 -3,0 0,6 4,4 8 4 16 9 ENE 1017,4 8 0 0,0
20.01.2019 04:00:00 -6,5 -8,5 -7,8 -2,9 0,6 4,4 10 5 21 11 ENE 1017,3 10 0 0,0
20.01.2019 03:00:00 -6,9 -8,8 -8,8 -2,7 0,6 4,4 7 4 16 9 ENE 1017,5 11 0 0,0
20.01.2019 02:00:00 -6,9 -8,9 -8,5 -2,5 0,6 4,4 8 4 15 8 NE 1017,6 11 0 0,0
20.01.2019 01:00:00 -6,0 -8,6 -7,8 -2,4 0,6 4,4 12 7 18 10 NE 1017,3 14 0 0,0
20.01.2019 00:00:00 -5,8 -8,7 -7,3 -2,2 0,7 4,4 13 7 21 11 NE 1017,6 17 0 0,0
19.01.2019 23:00:00 -5,2 -8,4 -6,6 -2,0 0,7 4,4 13 7 25 14 NE 1017,5 18 0 0,0
19.01.2019 22:00:00 -5,0 -8,5 -6,1 -1,8 0,7 4,4 14 8 27 15 NE 1017,7 19 0 0,0
19.01.2019 21:00:00 -4,6 -8,3 -6,0 -1,6 0,7 4,4 14 8 24 13 NE 1017,6 21 0 0,0
19.01.2019 20:00:00 -3,7 -8,1 -5,0 -1,5 0,7 4,4 19 10 36 19 NE 1017,5 22 0 0,0
19.01.2019 19:00:00 -3,9 -8,4 -5,2 -1,3 0,7 4,4 20 11 29 16 ENE 1017,7 21 0 0,0
19.01.2019 18:00:00 -3,1 -8,3 -4,6 -0,9 0,7 4,4 13 7 29 15 ENE 1017,8 20 0 0,0
19.01.2019 17:00:00 -2,6 -8,2 -4,0 -0,5 0,7 4,4 18 10 36 19 ENE 1017,6 23 4 0,0
19.01.2019 16:00:00 -1,7 -7,8 -2,0 -0,2 0,7 4,4 23 13 41 22 NE 1017,6 15 24 0,0
19.01.2019 15:00:00 -1,7 -6,9 -1,8 -0,2 0,7 4,4 23 12 40 22 ENE 1017,9 13 27 0,0
19.01.2019 14:00:00 -1,9 -8,4 -1,3 -0,2 0,7 4,4 29 15 44 24 NE 1018,4 8 26 0,0
19.01.2019 13:00:00 -1,7 -10,4 -1,3 -0,3 0,7 4,4 24 13 32 17 NE 1019,1 13 56 0,0
19.01.2019 12:00:00 -0,7 -12,4 1,5 -0,3 0,8 4,4 10 5 14 8 N 1019,6 15 56 0,0
19.01.2019 11:00:00 -1,7 -12,0 -1,0 -0,5 0,8 4,4 5 3 13 7 W 1020,3 30 48 0,0
19.01.2019 10:00:00 -3,7 -9,2 -4,1 -0,7 0,8 4,4 5 3 14 7 W 1020,7 28 38 0,0
19.01.2019 09:00:00 -5,8 -9,0 -6,3 -1,1 0,8 4,4 13 7 29 15 NE 1021,3 25 1 0,0
19.01.2019 08:00:00 -5,7 -8,7 -7,3 -1,2 0,8 4,4 24 13 29 16 NNE 1021,2 28 0 0,0
19.01.2019 07:00:00 -5,6 -8,4 -7,3 -0,9 0,8 4,4 18 10 27 15 NNE 1021,4 30 0 0,0
19.01.2019 06:00:00 -6,0 -8,4 -8,3 -0,8 0,8 4,4 11 6 16 9 NNE 1021,6 34 0 0,0
19.01.2019 05:00:00 -8,2 -9,2 -9,8 -0,6 0,8 4,4 3 2 6 4 ENE 1022,2 29 0 0,0
19.01.2019 04:00:00 -8,5 -9,2 -10,6 -0,4 0,8 4,4 2 1 8 5 SSE 1022,7 26 0 0,0
19.01.2019 03:00:00 -8,7 -9,5 -10,5 -0,2 0,8 4,4 6 3 9 5 ENE 1023,2 18 0 0,0
19.01.2019 02:00:00 -7,9 -8,5 -10,0 -0,1 0,8 4,4 0 0 5 3 N 1023,1 16 0 0,0
19.01.2019 01:00:00 -7,5 -8,3 -9,3 0,0 0,8 4,4 3 2 5 3 SE 1023,3 15 0 0,0
19.01.2019 00:00:00 -7,2 -7,9 -9,1 0,0 0,8 4,4 3 2 8 5 SE 1023,5 33 0 0,0
18.01.2019 23:00:00 -7,3 -8,1 -8,4 0,0 0,9 4,4 6 3 10 5 E 1023,9 24 0 0,0
18.01.2019 22:00:00 -7,6 -8,3 -8,8 0,0 0,9 4,4 5 3 9 5 ENE 1024,1 18 0 0,0
18.01.2019 21:00:00 -6,5 -7,5 -7,8 0,0 0,9 4,4 9 5 11 6 E 1023,7 29 0 0,0
18.01.2019 20:00:00 -5,6 -7,2 -7,3 0,1 0,9 4,4 4 2 10 5 ENE 1023,5 30 0 0,0
18.01.2019 19:00:00 -4,3 -6,5 -6,8 0,1 0,9 4,4 5 3 7 4 E 1023,0 39 0 0,0
18.01.2019 18:00:00 -2,7 -6,1 -4,8 0,1 0,9 4,4 5 3 7 4 NE 1022,5 46 0 0,0
18.01.2019 17:00:00 -1,4 -6,5 -4,3 0,1 0,9 4,4 3 1 12 6 SW 1021,7 58 11 0,0
18.01.2019 16:00:00 0,1 -6,0 -0,8 0,2 0,9 4,4 8 4 17 9 W 1020,8 37 46 0,0
18.01.2019 15:00:00 0,6 -6,6 0,5 0,2 0,9 4,4 14 7 18 10 W 1020,3 23 36 0,0
18.01.2019 14:00:00 0,3 -6,4 0,0 0,2 0,8 4,4 11 6 20 11 WNW 1020,3 32 24 0,0
18.01.2019 13:00:00 0,2 -6,5 0,2 0,2 0,8 4,4 18 10 29 16 W 1020,2 10 39 0,0
18.01.2019 12:00:00 -0,3 -5,2 -0,6 0,1 0,8 4,4 13 7 21 12 W 1020,3 16 30 0,0
18.01.2019 11:00:00 -0,8 -4,4 -0,8 0,1 0,8 4,4 16 9 29 15 W 1020,2 27 0 0,0
18.01.2019 10:00:00 -0,9 -3,8 -1,0 0,1 0,8 4,4 18 10 27 15 W 1019,0 22 0 0,0
18.01.2019 09:00:00 -0,9 -3,4 -1,0 0,1 0,8 4,4 19 10 29 16 WSW 1018,1 23 0 0,0
18.01.2019 08:00:00 -0,8 -3,5 -1,1 0,1 0,8 4,4 17 9 28 15 W 1016,9 22 0 0,0
18.01.2019 07:00:00 -0,7 -3,1 -1,0 0,1 0,8 4,4 18 10 31 17 W 1015,7 18 0 0,1
18.01.2019 06:00:00 -0,6 -2,8 -0,8 0,1 0,8 4,4 20 11 32 17 W 1014,5 20 0 0,0
18.01.2019 05:00:00 -0,5 -3,0 -0,7 0,1 0,8 4,4 18 10 33 18 W 1013,7 25 0 0,0
18.01.2019 04:00:00 -0,5 -3,3 -0,8 0,1 0,8 4,4 17 9 35 19 W 1013,5 39 0 0,0
18.01.2019 03:00:00 -0,7 -2,7 -1,3 0,1 0,8 4,4 17 9 27 15 WSW 1013,0 35 0 0,0
18.01.2019 02:00:00 -0,3 -2,8 -1,1 0,1 0,8 4,4 18 10 36 19 WSW 1012,6 46 0 0,0
18.01.2019 01:00:00 0,4 -1,7 0,0 0,1 0,8 4,4 26 14 40 21 W 1011,9 42 0 0,0
18.01.2019 00:00:00 0,2 -0,3 0,1 0,1 0,8 4,4 15 8 25 14 WSW 1011,0 6 0 0,0
17.01.2019 23:00:00 0,7 -0,8 0,2 0,1 0,8 4,5 16 9 33 18 W 1010,4 35 0 0,0
17.01.2019 22:00:00 1,0 -0,6 0,4 0,1 0,8 4,5 22 12 67 36 W 1009,8 62 0 0,1
17.01.2019 21:00:00 2,9 -0,1 1,8 0,1 0,8 4,5 26 14 41 22 SW 1008,2 43 0 0,0
17.01.2019 20:00:00 3,1 0,8 1,9 0,1 0,8 4,5 23 12 35 19 SW 1007,9 58 0 0,0
17.01.2019 19:00:00 3,3 1,1 2,0 0,1 0,8 4,5 19 10 33 18 SW 1007,3 63 0 0,0
17.01.2019 18:00:00 2,5 0,7 1,1 0,1 0,8 4,5 8 4 19 10 SSW 1007,1 27 0 0,0
17.01.2019 17:00:00 2,5 0,7 1,4 0,1 0,8 4,5 16 9 33 18 WSW 1006,7 62 0 0,2
17.01.2019 16:00:00 2,1 1,3 1,3 0,1 0,8 4,5 26 14 59 32 WSW 1006,6 5 0 1,5
17.01.2019 15:00:00 5,0 1,3 2,9 0,1 0,9 4,5 21 11 33 18 SSW 1004,8 27 0 0,1
17.01.2019 14:00:00 4,6 0,8 2,5 0,1 0,9 4,5 21 12 32 17 SW 1005,2 28 0 0,0
17.01.2019 13:00:00 4,2 0,4 2,7 0,1 0,9 4,5 19 10 33 18 SW 1005,8 25 0 0,0
17.01.2019 12:00:00 3,3 0,1 1,9 0,1 0,9 4,5 18 10 30 16 SSW 1006,9 20 0 0,0
17.01.2019 11:00:00 2,4 -0,5 1,3 0,1 0,9 4,5 13 7 23 12 SSW 1007,6 20 0 0,1
17.01.2019 10:00:00 3,0 -0,6 1,8 0,1 0,9 4,5 16 9 26 14 SSW 1007,5 23 0 0,0
17.01.2019 09:00:00 2,9 -0,8 1,8 0,1 0,9 4,5 18 10 33 18 SW 1007,7 26 0 0,0
17.01.2019 08:00:00 2,6 -1,2 1,6 0,1 0,9 4,5 21 11 34 18 SW 1007,7 25 0 0,0
17.01.2019 07:00:00 2,6 -1,7 1,1 0,1 0,9 4,5 17 9 29 15 SW 1007,7 35 0 0,0
17.01.2019 06:00:00 2,5 -2,4 1,5 0,1 0,9 4,5 17 9 28 15 SW 1007,9 37 0 0,0
17.01.2019 05:00:00 2,5 -2,8 1,5 0,1 0,9 4,5 23 12 41 22 SW 1008,0 37 0 0,0
17.01.2019 04:00:00 1,3 -3,3 -1,1 0,1 0,9 4,5 18 10 30 16 SW 1008,3 35 0 0,0
17.01.2019 03:00:00 0,2 -3,8 -2,8 0,1 0,9 4,5 11 6 15 8 S 1008,9 28 0 0,0
17.01.2019 02:00:00 0,5 -3,5 -3,1 0,1 0,9 4,5 7 4 13 7 WSW 1009,1 27 0 0,0
17.01.2019 01:00:00 -0,4 -3,1 -3,6 0,1 0,9 4,5 4 2 12 7 ENE 1009,7 25 0 0,0
17.01.2019 00:00:00 1,0 -2,8 -2,5 0,1 0,9 4,5 5 3 15 8 W 1010,2 25 0 0,0
16.01.2019 23:00:00 0,9 -2,8 -1,5 0,1 0,9 4,5 9 5 17 9 SW 1010,5 23 0 0,0
16.01.2019 22:00:00 1,1 -2,6 -1,0 0,1 0,9 4,5 5 3 13 7 SW 1010,9 23 0 0,0
16.01.2019 21:00:00 1,3 -2,4 -1,3 0,1 0,9 4,5 5 3 21 11 S 1011,0 22 0 0,0
16.01.2019 20:00:00 1,5 -2,3 -0,4 0,2 0,9 4,5 12 6 22 12 S 1011,5 24 0 0,0
16.01.2019 19:00:00 1,9 -1,7 -0,1 0,2 1,0 4,5 9 5 30 16 SSW 1011,7 25 0 0,0
16.01.2019 18:00:00 2,0 -1,4 0,4 0,2 1,0 4,5 16 9 31 17 SSW 1012,1 24 0 0,0
16.01.2019 17:00:00 2,3 -1,3 0,7 0,3 1,0 4,5 11 6 20 11 SSW 1012,3 26 0 0,0
16.01.2019 16:00:00 2,5 -1,3 1,1 0,3 1,0 4,5 11 6 24 13 S 1012,9 25 0 0,0
16.01.2019 15:00:00 2,9 -1,3 1,7 0,4 1,0 4,5 16 8 29 16 SSW 1013,2 27 13 0,0
16.01.2019 14:00:00 3,2 -1,6 2,3 0,4 1,0 4,5 17 9 29 15 SSW 1013,8 22 23 0,0
16.01.2019 13:00:00 2,7 -1,8 2,0 0,4 1,0 4,5 20 11 32 17 SW 1014,7 18 15 0,0
16.01.2019 12:00:00 2,4 -1,4 1,8 0,3 0,9 4,5 16 9 29 15 SW 1015,7 29 0 0,0
16.01.2019 11:00:00 2,0 -1,1 1,5 0,3 0,9 4,5 14 8 32 17 SW 1016,6 28 0 0,0
16.01.2019 10:00:00 1,7 -1,1 1,3 0,3 0,9 4,5 17 9 29 16 SSW 1016,8 38 0 0,0
16.01.2019 09:00:00 1,6 -0,7 0,9 0,3 0,9 4,5 13 7 20 11 SSW 1017,0 25 0 0,0
16.01.2019 08:00:00 1,6 -0,4 0,9 0,3 0,9 4,5 11 6 28 15 SW 1016,8 28 0 0,0
16.01.2019 07:00:00 1,7 -0,3 0,8 0,3 0,9 4,5 21 11 32 18 WSW 1016,8 21 0 0,0
16.01.2019 06:00:00 1,7 -0,1 0,9 0,3 0,9 4,5 17 9 29 15 SW 1016,8 12 0 0,0
16.01.2019 05:00:00 1,9 -0,2 1,1 0,3 0,9 4,5 21 11 31 17 SW 1017,1 23 0 0,0
16.01.2019 04:00:00 2,0 -0,4 1,2 0,3 0,9 4,5 19 10 29 16 SW 1017,4 26 0 0,0

tt = temperature
td = dewpoint
tt 5cm = temperature 5cm
tt -5cm = temperature -5cm
tt -20cm = temperature -20cm
tt -100cm = temperature -100cm
ff = wind speed
fx = gusts
dd = wind direction
ppp = reduced air pressure
vv = visibility
sd = sunshine duration
rr = precipitation

Next stations